Notices

What's New in latest Release from April 7th, 2021:

- Updated Glossary, including Speed of Maximum Gust, and Total Hourly Precipitation

- Updated national and regional climate services offices contacts and prices information

- Addition of station inventory lists for 1981-2010, 1971-2000, and 1961-1990 Normals.

If you haven't already, please take our survey and provide feedback about our website: https://eccc.sondage-survey.ca/f/LanguageSelection.aspx?s=442ca660-fcf1-47c0-95a9-59707d6fd709

Hourly Data Report for April 20, 2020

CLYDE RIVER A
NUNAVUT
Current Station Operator: NAVCAN

70°29'09.000" N
68°31'01.000" W
26.50 m
2400804
71090
YCY

Download Data

Hourly Data (April 2020)
Hourly Data Report for April 20, 2020
TIME
LST
Temp Definition
°C
Dew Point Definition
°C
Rel Hum Definition
%
Precip. Amount Definition
mm

Wind Dir Definition
10's deg

Wind Spd Definition
km/h
Visibility Definition
km
Stn Press Definition
kPa
Hmdx Definition


Wind Chill Definition


Weather Definition


00:00 -22.5 -27.2 66 0.0 29 8 16.1 100.21   -29 LegendNANA
01:00 -21.5 -25.3 72 0.0 LegendMM 4 16.1 100.33   -25 LegendNANA
02:00 -24.2 -28.4 69 0.0 32 8 16.1 100.40   -31 LegendNANA
03:00 -24.9 -28.4 73 0.0 33 13 16.1 100.50   -34 LegendNANA
04:00 -24.3 -27.6 75 0.0 27 8 16.1 100.61   -31 LegendNANA
05:00 -22.7 -26.9 69 0.0 LegendMM 4 16.1 100.69   -26 LegendNANA
06:00 -22.7 -26.9 69 0.0 31 8 16.1 100.77   -29 LegendNANA
07:00 -22.2 -25.7 74 0.0 30 9 16.1 100.84   -29 LegendNANA
08:00 -19.7 -24.1 69 0.0 LegendMM 4 16.1 100.93   -23 LegendNANA
09:00 -20.9 -24.4 74 0.0 6 5 16.1 101.03   -25 LegendNANA
10:00 -19.9 -22.7 79 0.0   0 16.1 101.10     LegendNANA
11:00 -16.5 -20.1 74 0.0   0 16.1 101.11     LegendNANA
12:00 -16.5 -19.5 78 0.0 32 5 16.1 101.12   -20 LegendNANA
13:00 -16.4 -19.4 78 0.0 34 8 9.7 101.14   -22 Haze
14:00 -16.2 -19.3 77 0.0 33 9 16.1 101.15   -22 LegendNANA
15:00 -16.4 -19.4 78 0.0 34 13 4.0 101.16   -24 Haze
16:00 -17.2 -19.4 83 0.0 34 9 16.1 101.19   -23 LegendNANA
17:00 -17.2 -19.9 80 0.0 33 13 16.1 101.18   -25 LegendNANA
18:00 -17.0 -19.8 79 0.0 30 15 14.5 101.17   -25 Snow
19:00 -17.0 -19.5 81 0.0 30 17 16.1 101.13   -26 Snow
20:00 -17.5 -19.9 82 0.0 30 17 16.1 101.10   -27 Snow
21:00 -17.3 -19.4 84 0.0 31 21 6.4 101.08   -27 Snow
22:00 -17.0 -19.1 84 0.0 30 28 8.1 101.06   -28 Snow
23:00 -16.9 -19.0 84 0.0 30 26 6.4 101.04   -28 Snow

Notes on Data Quality.

Legend

  • E = Estimated
  • M = Missing
  • NA = Not Available*
  • [empty] = Indicates an unobserved value
Date modified: